Regional Weather Roundup
Issued by NWS

Home | Current Version | Previous Version | Text Only | Print | Product List | Glossary Off
Versions: 1 2 3 4 5 6 7 8 9 10 11 12 13 14 15 16 17 18 19 20 21 22 23 24 25 26 27 28 29 30 31 32 33 34 35 36 37 38 39 40 41 42 43 44 45 46 47 48 49 50

000
ASUS43 KMPX 201510
RWRMN
WEATHER ROUNDUP FOR MINNESOTA
NATIONAL WEATHER SERVICE TWIN CITIES/CHANHASSEN MN
1000 AM CDT SUN AUG 20 2017


NOTE: "FAIR" INDICATES FEW OR NO CLOUDS BELOW 12,000 FEET WITH NO
SIGNIFICANT WEATHER AND/OR OBSTRUCTIONS TO VISIBILITY. N/A MEANS
CURRENT SKY AND/OR WEATHER CONDITIONS ARE NOT AVAILABLE.

MNZ060>063-068>070-201600-
   Twin Cities Metro

CITY           SKY/WX    TMP DP  RH WIND       PRES   REMARKS
TWIN CITIES    MOSUNNY   76  65  68 W8        29.91R
ST PAUL        SUNNY     74  66  76 VRB6      29.91R
CRYSTAL        SUNNY     74  63  68 SW8       29.89R
BLAINE         CLOUDY    75  68  78 S8        29.90R
LAKEVILLE      SUNNY     73  66  78 SW3       29.91S
EDEN PRAIRIE   SUNNY     75  66  73 W8        29.91R
SOUTH ST PAUL  SUNNY     74  65  74 SW3       29.91S
LAKE ELMO      FAIR      72  66  83 S6        29.92R
$$
MNZ001>005-007-008-013>017-022>024-027-028-201600-
   Northwest Minnesota

CITY           SKY/WX    TMP DP  RH WIND       PRES   REMARKS
BEMIDJI        CLOUDY    66  55  68 NW13G18   29.93R
HALLOCK        SUNNY     68  46  45 NW13G22   29.93S
ROSEAU         SUNNY     70  59  68 W12       29.91R
WARROAD        SUNNY     70  57  64 NW10G17   29.90R
THIEF RVR FALL CLOUDY    65  50  58 NW12      29.95R
CROOKSTON      CLOUDY    64  48  55 NW12      29.96R
FOSSTON        MOSUNNY   66  54  63 NW9       29.95R
DETROIT LAKES  CLOUDY    61  54  77 NW15      29.98R
MOORHEAD       CLOUDY    64  54  68 NW9       29.98R
PARK RAPIDS    CLOUDY    67  58  72 NW7       29.93R
MAHNOMEN       FAIR      62  54  73 NW8       29.97R
$$
MNZ006-009>011-018-025>026-201600-
   North Central Minnesota

CITY           SKY/WX    TMP DP  RH WIND       PRES   REMARKS
BAUDETTE       SUNNY     70  54  56 NW18G26   29.87R
FLAG ISLAND      N/A     68  54  60 NW12      29.86R HAZE
INTL FALLS     CLOUDY    69  61  75 NW13      29.83R
WASKISH        PTSUNNY   70  54  56 NW9G16    29.89R
BIG FORK       CLOUDY    68  61  77 W5        29.88R
LONGVILLE      PTSUNNY   70  61  73 NW10G16   29.91R
GRAND RAPIDS   CLOUDY    69  63  81 NW13      29.90R
CRANE LAKE     CLOUDY    66  63  88 SW7       29.83S
ORR            CLOUDY    66  61  82 W6        29.82R
COOK           CLOUDY    68  63  83 W8        29.85R
WALKER         FAIR      65  58  77 NW12      29.92R
$$
MNZ012-019>021-037-201600-
   Northeast Minnesota

CITY           SKY/WX    TMP DP  RH WIND       PRES   REMARKS
DULUTH         PTSUNNY   68  65  90 W13       29.87R
ELY            CLOUDY    66  63  88 SW9       29.85R
HIBBING        CLOUDY    64  63  96 W5        29.86S
EVELETH        CLOUDY    65  61  86 W9        29.87S
DULUTH HARBOR  SUNNY     73  68  83 SW9       29.85S
TWO HARBORS    SUNNY     73  66  78 SW9       29.83F
SILVER BAY     MOSUNNY   73  64  73 SW8       29.82F
GRAND MARAIS     N/A     66  63  90 SW3       29.84S
G MARAIS ARPRT MOSUNNY   66  59  77 SW9G20    29.87F
$$
MNZ029>031-032-039>041-046>048-054>057-064-201600-
   West Central Minnesota

CITY           SKY/WX    TMP DP  RH WIND       PRES   REMARKS
FERGUS FALLS   PTSUNNY   63  54  72 N8G17     29.96R
WHEATON        CLOUDY    64  52  63 NW13G18   29.98R
MORRIS         CLOUDY    64  57  77 N8G18     29.95R
ALEXANDRIA     CLOUDY    66  61  84 N16       29.93R
ELBOW LAKE     FAIR      63  57  81 NW15      29.96R
WADENA         CLOUDY    64  59  82 NW7       29.94R
GLENWOOD       PTSUNNY   70  63  78 N3        29.95R
APPLETON       CLOUDY    68  57  68 NW8       29.96R
BENSON         MOSUNNY   72  61  68 N9        29.97R
ORTONVILLE     PTSUNNY   64  55  72 MISG      29.95F
MADISON        CLOUDY    70  61  73 N9        29.97R
WILLMAR        FAIR      72  66  83 W6        29.94R
$$
MNZ033>034-036-042>043-049>051-058-059-201600-
   Central Minnesota

CITY           SKY/WX    TMP DP  RH WIND       PRES   REMARKS
ST CLOUD       MOSUNNY   73  67  81 W9        29.90R
SAUK CENTRE    FAIR      70  63  79 N7        29.93R
PAYNESVILLE    PTSUNNY   71  66  84 NW8       29.93R
AITKIN         CLOUDY    66  63  88 NW7       29.89R
PINE RIVER     CLOUDY    64  59  82 NW8       29.94R
BRAINERD       PTSUNNY   69  62  78 NW12      29.90R
STAPLES        CLOUDY    66  61  82 NW9       29.92R
LONG PRAIRIE   FAIR      68  63  83 NW6       29.92R
LITTLE FALLS   PTSUNNY   70  63  78 NW5       29.91R
LITCHFIELD     SUNNY     73  70  88 W6        29.93R
BUFFALO        SUNNY     73  65  76 S5        29.91R
MAPLE LAKE     SUNNY     74  68  80 W5        29.91R
HUTCHINSON     SUNNY     74  68  83 W8        29.92S
$$
MNZ037-044-045-052-053-201600-
   East Central Minnesota

CITY           SKY/WX    TMP DP  RH WIND       PRES   REMARKS
PRINCETON      SUNNY     75  66  73 W8        29.89S
MORA           MOSUNNY   70  64  83 W7        29.91R
CAMBRIDGE      SUNNY     73  66  78 SW5       29.89S
RUSH CITY      SUNNY     72  65  79 SW7       29.89S HAZE
MOOSE LAKE     CLOUDY    68  63  83 SW7       29.88R
HINCKLEY       FAIR      72  68  88 SW9       29.89S
CLOQUET        CLOUDY    68  63  83 W9        29.88R
MCGREGOR       CLOUDY    68  63  83 W6        29.90R
$$
MNZ071>073-080-081-089-090-097-098-201600-
   Southwest Minnesota

CITY           SKY/WX    TMP DP  RH WIND       PRES   REMARKS
MONTEVIDEO     MOSUNNY   72  70  94 N12       29.96R
GRANITE FALLS  MOSUNNY   72  65  81 NW8       29.96R
CANBY          CLOUDY    69  58  68 CALM      29.98R
MARSHALL       MOSUNNY   70  64  81 N10       29.96R
REDWOOD FALLS  SUNNY     74  65  73 NW12      29.92R
OLIVIA         MOSUNNY   72  66  83 W8        29.92R
PIPESTONE      SUNNY     73  64  73 N6        29.98R
WINDOM         SUNNY     75  64  69 W7        29.96R
JACKSON        SUNNY     73  63  68 SW3       29.98R
TRACY          SUNNY     72  66  82 NW12      29.97R
SLAYTON        SUNNY     72  62  69 W5        29.98R
$$
MNZ065>067-074>077-082>085-091>093-201600-
   South Central Minnesota

CITY           SKY/WX    TMP DP  RH WIND       PRES   REMARKS
MANKATO        SUNNY     74  66  76 SW10      29.94R
NEW ULM        SUNNY     73  66  78 W6        29.93R
ST JAMES       SUNNY     75  66  73 SW6       29.95R
FAIRMONT       CLOUDY    73  66  78 SW7       29.97R
GLENCOE        SUNNY     74  70  86 SW7       29.92R
FARIBAULT      CLOUDY    73  66  78 S8        29.94S
OWATONNA       CLOUDY    72  64  78 S12       29.95S
WASECA         CLOUDY    72  63  73 S8        29.97R
ALBERT LEA     CLOUDY    73  66  78 SW3       29.98R
$$
MNZ078>079-086>088-094>096-201600-
   Southeast Minnesota

CITY           SKY/WX    TMP DP  RH WIND       PRES   REMARKS
ROCHESTER      CLOUDY    68  66  93 S12       30.00R
RED WING       CLOUDY    73  63  68 S5        29.92F
STANTON        CLOUDY    75  66  74 SW9       29.92S
DODGE CENTER   CLOUDY    70  64  83 S8        29.98R
WINONA         PTSUNNY   72  63  73 CALM      29.97R
AUSTIN         CLOUDY    70  64  83 S7        30.00R
PRESTON        CLOUDY    68  63  85 SW6       30.01R
$$
ABBREVIATIONS USED IN REMARKS
   TC - TEMPERATURES IN CELSIUS
  WCI - WIND CHILL INDEX
   HX - HEAT INDEX
  VSB - VISIBILITY
$$




USA.gov is the U.S. government's official web portal to all federal, state and local government web resources and services.